EW3393 Weather Reports


Display with metric or nautical units.
time (UTC)temp
F
wind
direction
speed
MPH
gust
MPH
rain 1hr
in
rain 24hr
in
rain mn
in
humidity
%
barometer
mb
20260503181315 80 269 16.0 23.0 0.00 0.00 0.00 34 1008.6
20260503180826 80 269 17.0 23.0 0.00 0.00 0.00 34 1008.6
20260503180336 80 266 16.0 24.0 0.00 0.00 0.00 33 1008.6
20260503175823 79 292 14.0 24.0 0.00 0.00 0.00 34 1008.7
20260503175314 80 265 16.0 21.0 0.00 0.00 0.00 33 1008.6
20260503174827 80 285 16.0 20.0 0.00 0.00 0.00 33 1008.6
20260503174318 79 285 14.0 18.0 0.00 0.00 0.00 33 1008.7
20260503173850 79 270 15.0 20.0 0.00 0.00 0.00 34 1008.6
20260503173324 78 259 15.0 20.0 0.00 0.00 0.00 35 1008.6
20260503172816 78 276 15.0 23.0 0.00 0.00 0.00 36 1008.7
20260503172327 78 271 16.0 23.0 0.00 0.00 0.00 37 1008.6
20260503171820 77 265 18.0 21.0 0.00 0.00 0.00 38 1008.7
20260503171331 77 261 17.0 23.0 0.00 0.00 0.00 37 1008.7
20260503170822 77 261 16.0 24.0 0.00 0.00 0.00 37 1008.8
20260503170333 76 270 18.0 25.0 0.00 0.00 0.00 38 1008.8
20260503150821 70 283 17.0 27.0 0.00 0.00 0.00 48 1008.6
20260503150332 70 261 20.0 28.0 0.00 0.00 0.00 48 1008.6
20260503131340 67 294 10.0 13.0 0.00 0.00 0.00 52 1007.6
20260503130832 67 294 10.0 16.0 0.00 0.00 0.00 51 1007.6
20260503130323 68 302 10.0 17.0 0.00 0.00 0.00 49 1007.5
20260503110819 69 272 11.0 14.0 0.00 0.00 0.00 46 1007.0
20260503110330 70 279 10.0 13.0 0.00 0.00 0.00 45 1007.0
20260503090321 74 288 8.0 11.0 0.00 0.00 0.00 38 1008.1
20260503081318 75 277 7.0 9.0 0.00 0.00 0.00 31 1008.7
20260503080831 75 280 7.0 10.0 0.00 0.00 0.00 34 1008.7
20260503080323 75 279 8.0 9.0 0.00 0.00 0.00 35 1008.7
20260503072828 75 286 7.0 9.0 0.00 0.00 0.00 36 1008.8
20260503072320 75 288 7.0 9.0 0.00 0.00 0.00 37 1008.9
20260503071833 75 283 7.0 8.0 0.00 0.00 0.00 38 1008.8
20260503071344 75 273 6.0 8.0 0.00 0.00 0.00 38 1008.8
20260503070815 76 310 4.0 7.0 0.00 0.00 0.00 38 1008.9
20260503070326 76 311 3.0 5.0 0.00 0.00 0.00 38 1008.9
20260503060328 78 292 8.0 10.0 0.00 0.00 0.00 35 1009.0
20260503054844 78 320 5.0 8.0 0.00 0.00 0.00 35 1009.0
20260503054332 78 318 5.0 8.0 0.00 0.00 0.00 35 1009.0
20260503053844 78 299 5.0 9.0 0.00 0.00 0.00 35 1009.0
20260503053334 78 310 6.0 8.0 0.00 0.00 0.00 35 1008.9
20260503052826 78 317 5.0 8.0 0.00 0.00 0.00 34 1009.0
20260503052317 79 304 6.0 8.0 0.00 0.00 0.00 34 1009.0
20260503051829 79 317 5.0 8.0 0.00 0.00 0.00 33 1009.0
20260503051341 80 279 5.0 9.0 0.00 0.00 0.00 33 1009.0
20260503050833 80 298 6.0 9.0 0.00 0.00 0.00 33 1008.9
20260503050343 80 317 5.0 8.0 0.00 0.00 0.00 32 1008.9
20260503045815 81 296 4.0 10.0 0.00 0.00 0.00 32 1008.9
20260503045327 81 279 8.0 10.0 0.00 0.00 0.00 32 1008.8
20260503044819 80 280 5.0 10.0 0.00 0.00 0.00 32 1008.8
20260503044350 81 335 4.0 9.0 0.00 0.00 0.00 32 1008.7
20260503043823 81 281 7.0 10.0 0.00 0.00 0.00 32 1008.7
20260503043334 81 306 8.0 10.0 0.00 0.00 0.00 32 1008.6
20260503042825 81 296 7.0 9.0 0.00 0.00 0.00 32 1008.6
20260503042336 81 295 6.0 10.0 0.00 0.00 0.00 32 1008.7
20260503041828 81 286 7.0 9.0 0.00 0.00 0.00 32 1008.6
20260503041319 82 309 3.0 5.0 0.00 0.00 0.00 31 1008.5
20260503040815 82 13 2.0 9.0 0.00 0.00 0.00 32 1008.4
20260503040327 82 350 4.0 10.0 0.00 0.00 0.00 32 1008.4
20260503035816 82 331 5.0 12.0 0.00 0.00 0.00 32 1008.4
20260503035327 82 336 8.0 12.0 0.00 0.00 0.00 32 1008.4
20260503034820 82 348 7.0 12.0 0.00 0.00 0.00 32 1008.3
20260503034331 82 297 9.0 14.0 0.00 0.00 0.00 32 1008.3
20260503033822 82 323 9.0 15.0 0.00 0.00 0.00 32 1008.1
20260503033334 82 298 11.0 14.0 0.00 0.00 0.00 32 1008.1
20260503032826 83 296 10.0 17.0 0.00 0.00 0.00 32 1008.0
20260503032318 83 281 12.0 17.0 0.00 0.00 0.00 32 1007.9
20260503031815 83 288 14.0 18.0 0.00 0.00 0.00 32 1007.8
20260503031326 83 273 11.0 18.0 0.00 0.00 0.00 31 1007.8
20260503030818 84 269 11.0 14.0 0.00 0.00 0.00 29 1007.8
20260503030330 84 275 8.0 19.0 0.00 0.00 0.00 28 1007.9
20260503025819 84 300 10.0 19.0 0.00 0.00 0.00 28 1007.7
20260503025330 85 261 11.0 14.0 0.00 0.00 0.00 27 1007.7
20260503024822 85 286 10.0 13.0 0.00 0.00 0.00 22 1007.6
20260503024332 86 281 4.0 8.0 0.00 0.00 0.00 12 1007.5
20260503023828 86 146 2.0 8.0 0.00 0.00 0.00 12 1007.3
20260503023318 87 123 3.0 9.0 0.00 0.00 0.00 12 1007.2
20260503022850 87 128 5.0 11.0 0.00 0.00 0.00 12 1007.2
20260503022320 87 128 4.0 11.0 0.00 0.00 0.00 12 1007.1
20260503021833 88 104 5.0 9.0 0.00 0.00 0.00 11 1007.1
20260503021324 88 149 4.0 10.0 0.00 0.00 0.00 11 1007.1
20260503020816 89 144 7.0 11.0 0.00 0.00 0.00 11 1007.1
20260503020327 89 129 7.0 11.0 0.00 0.00 0.00 11 1007.0
20260503015815 89 111 6.0 10.0 0.00 0.00 0.00 10 1007.1
20260503015347 90 103 7.0 11.0 0.00 0.00 0.00 10 1007.1
20260503014819 90 135 6.0 11.0 0.00 0.00 0.00 10 1007.2
20260503014315 90 138 5.0 13.0 0.00 0.00 0.00 9 1007.1
20260503013828 91 146 8.0 13.0 0.00 0.00 0.00 9 1007.1
20260503013317 91 107 6.0 11.0 0.00 0.00 0.00 9 1007.1
20260503012849 91 145 4.0 11.0 0.00 0.00 0.00 9 1007.1
20260503012318 91 134 6.0 12.0 0.00 0.00 0.00 9 1007.1
20260503011831 92 133 5.0 12.0 0.00 0.00 0.00 9 1007.1
20260503011322 92 94 7.0 13.0 0.00 0.00 0.00 9 1007.1
20260503010815 92 127 5.0 13.0 0.00 0.00 0.00 9 1007.0
20260503010325 92 146 7.0 14.0 0.00 0.00 0.00 9 1007.0
20260503005815 92 156 8.0 14.0 0.00 0.00 0.00 8 1007.0
20260503005347 93 123 5.0 16.0 0.00 0.00 0.00 8 1007.0
20260503004823 93 184 7.0 14.0 0.00 0.00 0.00 9 1007.1
20260503004314 93 134 6.0 10.0 0.00 0.00 0.00 8 1007.1
20260503003828 93 165 6.0 14.0 0.00 0.00 0.00 8 1007.1
20260503003319 93 116 8.0 14.0 0.00 0.00 0.00 8 1007.1
20260503002852 93 142 6.0 10.0 0.00 0.00 0.00 8 1007.1
20260503002322 94 114 3.0 8.0 0.00 0.00 0.00 8 1007.0
20260503001815 94 136 5.0 12.0 0.00 0.00 0.00 8 1007.1
20260503001325 94 152 8.0 12.0 0.00 0.00 0.00 8 1007.1
20260503000821 93 154 7.0 11.0 0.00 0.00 0.00 8 1007.1
20260503000333 93 107 2.0 10.0 0.00 0.00 0.00 8 1007.1
20260502235843 93 115 5.0 15.0 0.00 0.00 0.00 8 1007.2
20260502235353 94 128 8.0 15.0 0.00 0.00 0.00 9 1007.2
20260502234824 93 125 9.0 13.0 0.00 0.00 0.00 8 1007.3
20260502234314 94 113 7.0 12.0 0.00 0.00 0.00 8 1007.3
20260502233825 94 124 7.0 14.0 0.00 0.00 0.00 8 1007.4
20260502233315 94 127 7.0 14.0 0.00 0.00 0.00 8 1007.4
20260502232827 94 138 5.0 13.0 0.00 0.00 0.00 8 1007.5
20260502232317 94 146 7.0 15.0 0.00 0.00 0.00 8 1007.5
20260502231830 94 146 9.0 16.0 0.00 0.00 0.00 8 1007.5
20260502231325 94 148 8.0 16.0 0.00 0.00 0.00 8 1007.5
20260502230816 94 69 7.0 15.0 0.00 0.00 0.00 8 1007.4
20260502230348 95 104 9.0 15.0 0.00 0.00 0.00 8 1007.5
20260502225816 94 165 5.0 12.0 0.00 0.00 0.00 8 1007.6
20260502225348 94 114 7.0 15.0 0.00 0.00 0.00 8 1007.7
20260502224840 95 93 10.0 15.0 0.00 0.00 0.00 8 1007.8
20260502224330 95 114 5.0 15.0 0.00 0.00 0.00 8 1007.9
20260502223823 95 94 10.0 15.0 0.00 0.00 0.00 8 1007.8
20260502223315 95 158 6.0 14.0 0.00 0.00 0.00 8 1007.9
20260502222828 95 155 10.0 14.0 0.00 0.00 0.00 9 1008.0
20260502222323 95 109 4.0 17.0 0.00 0.00 0.00 8 1008.2
20260502221816 95 155 10.0 18.0 0.00 0.00 0.00 8 1008.2
20260502221327 95 163 11.0 18.0 0.00 0.00 0.00 8 1008.4
20260502220818 95 92 8.0 32.0 0.00 0.00 0.00 8 1008.4
20260502220328 94 195 8.0 32.0 0.00 0.00 0.00 8 1008.5
20260502215818 94 236 5.0 14.0 0.00 0.00 0.00 8 1008.5
20260502215329 94 196 9.0 16.0 0.00 0.00 0.00 8 1008.7
20260502214842 94 140 9.0 18.0 0.00 0.00 0.00 8 1008.7
20260502214352 94 122 11.0 18.0 0.00 0.00 0.00 8 1008.7
20260502213824 94 59 4.0 15.0 0.00 0.00 0.00 8 1008.8
20260502213338 95 140 6.0 15.0 0.00 0.00 0.00 8 1008.9
20260502212829 94 154 6.0 13.0 0.00 0.00 0.00 8 1008.9
20260502212319 94 198 9.0 17.0 0.00 0.00 0.00 8 1008.9
20260502211830 94 159 6.0 16.0 0.00 0.00 0.00 8 1009.0
20260502211321 95 84 9.0 16.0 0.00 0.00 0.00 7 1009.0
20260502210814 95 136 9.0 15.0 0.00 0.00 0.00 8 1009.2
20260502210343 94 19 3.0 11.0 0.00 0.00 0.00 7 1009.2
20260502205832 94 170 6.0 14.0 0.00 0.00 0.00 7 1009.3
20260502205323 94 73 7.0 16.0 0.00 0.00 0.00 7 1009.4
20260502204854 94 90 9.0 16.0 0.00 0.00 0.00 8 1009.4
20260502204324 94 142 8.0 16.0 0.00 0.00 0.00 7 1009.5
20260502203821 94 95 3.0 14.0 0.00 0.00 0.00 8 1009.6
20260502203332 94 156 4.0 14.0 0.00 0.00 0.00 8 1009.7
20260502202824 93 194 7.0 12.0 0.00 0.00 0.00 8 1009.9
20260502202314 93 122 7.0 14.0 0.00 0.00 0.00 8 1009.9
20260502201827 93 107 9.0 14.0 0.00 0.00 0.00 8 1010.0
20260502201318 94 111 5.0 10.0 0.00 0.00 0.00 8 1010.0
20260502200831 93 139 4.0 11.0 0.00 0.00 0.00 8 1010.2
20260502200342 94 90 8.0 11.0 0.00 0.00 0.00 8 1010.3
20260502195814 94 120 7.0 13.0 0.00 0.00 0.00 8 1010.4
20260502195346 93 142 7.0 12.0 0.00 0.00 0.00 8 1010.4
20260502194816 93 348 1.0 9.0 0.00 0.00 0.00 8 1010.4
20260502194327 93 106 3.0 11.0 0.00 0.00 0.00 8 1010.5
20260502193820 93 139 5.0 12.0 0.00 0.00 0.00 8 1010.6
20260502193331 93 139 10.0 12.0 0.00 0.00 0.00 8 1010.6
20260502192825 93 182 5.0 8.0 0.00 0.00 0.00 8 1010.6
20260502192315 92 199 4.0 12.0 0.00 0.00 0.00 7 1010.7
20260502191829 93 223 6.0 12.0 0.00 0.00 0.00 7 1010.8
20260502191324 92 199 2.0 12.0 0.00 0.00 0.00 7 1010.9
20260502190817 92 119 6.0 13.0 0.00 0.00 0.00 8 1011.0
20260502190329 92 116 6.0 13.0 0.00 0.00 0.00 7 1011.0
20260502185838 92 71 4.0 9.0 0.00 0.00 0.00 7 1011.0
20260502185328 92 108 4.0 9.0 0.00 0.00 0.00 7 1011.1
20260502184821 92 199 4.0 13.0 0.00 0.00 0.00 7 1011.2
20260502184352 92 211 7.0 14.0 0.00 0.00 0.00 8 1011.2
20260502183841 92 174 7.0 11.0 0.00 0.00 0.00 8 1011.2
20260502183331 91 122 5.0 10.0 0.00 0.00 0.00 8 1011.3
20260502182824 91 265 2.0 12.0 0.00 0.00 0.00 8 1011.3
20260502182319 91 202 8.0 13.0 0.00 0.00 0.00 8 1011.4
20260502181831 91 203 4.0 13.0 0.00 0.00 0.00 7 1011.4